Pensacola NAS, FL

1:03 PM CDT on September 19, 2017 (GMT -0500)
Pensacola Naval Air Station

Weather History for KNPA - May, 2013

Change the Weather History Date:

Thursday, May 23, 2013

  Actual Average Record
Temperature  
Mean Temperature 75 °F -  
Max Temperature 88 °F 82 °F 89 °F (2005)
Min Temperature 64 °F 65 °F 46 °F (2000)
Cooling Degree Days 10    
Growing Degree Days 25 (Base 50)    
Moisture  
Dew Point 68 °F    
Average Humidity 85    
Maximum Humidity 100    
Minimum Humidity 51    
Precipitation  
Precipitation 0.00 in - - ()
Sea Level Pressure  
Sea Level Pressure 30.00 in    
Wind  
Wind Speed 3 mph (WSW)    
Max Wind Speed 17 mph    
Max Gust Speed 22 mph    
Visibility 7 miles    
Events Fog    
Averages and records for this station are not official NWS values.
T = Trace of Precipitation, MM = Missing Value Source: NWS Daily Summary

Daily Weather History Graph

Daily Weather History Graph

Search for Another Location

Airport or City:

Trip Planner

Search our weather history database for the weather conditions in past years. The results will help you decide how hot, cold, wet, or windy it might be!

Date:

Astronomy

May. 23, 2013 Rise Set
Actual Time 5:50 AM CDT 7:41 PM CDT
Civil Twilight 5:24 AM CDT 8:08 PM CDT
Nautical Twilight 4:51 AM CDT 8:40 PM CDT
Astronomical Twilight 4:17 AM CDT 9:15 PM CDT
Moon 6:18 PM CDT (5/23) 4:28 AM CDT (5/23)
Length of Visible Light 14h 44m
Length of Day
13h 50m
Waxing Gibbous, 97% of the Moon is Illuminated
May 23
Waxing Gibbous
May 24
Full
May 31
Last Quarter
Jun 8
New
Jun 16
First Quarter

Hourly Weather History & Observations

Time (CDT) Temp. Heat Index Dew Point Humidity Pressure Visibility Wind Dir Wind Speed Gust Speed Precip Events Conditions
12:56 AM 73.0 °F - 70.0 °F 90% 29.96 in 10.0 mi WSW 3.5 mph - N/A   Clear
1:56 AM 71.1 °F - 69.1 °F 93% 29.96 in 10.0 mi WSW 3.5 mph - N/A   Clear
2:56 AM 68.0 °F - 66.9 °F 96% 29.96 in 9.0 mi Calm Calm - N/A   Clear
3:06 AM 68.0 °F - 66.2 °F 94% 29.96 in 2.0 mi Calm Calm - N/A   Clear
3:16 AM 69.8 °F - 68.0 °F 94% 29.96 in 10.0 mi Calm Calm - N/A   Clear
3:54 AM 66.2 °F - 66.2 °F 100% 29.97 in 2.5 mi Calm Calm - 0.00 in   Clear
3:56 AM 66.9 °F - 66.0 °F 97% 29.97 in 3.0 mi Calm Calm - 0.00 in   Clear
4:05 AM 66.2 °F - 66.2 °F 100% 29.97 in 1.2 mi Calm Calm - N/A   Clear
4:13 AM 66.2 °F - 66.2 °F 100% 29.97 in 0.5 mi Calm Calm - N/A Fog Fog
4:19 AM 66.2 °F - 66.2 °F 100% 29.97 in 2.0 mi Calm Calm - N/A   Clear
4:41 AM 66.2 °F - 66.2 °F 100% 29.97 in 0.8 mi Calm Calm - N/A   Clear
4:53 AM 64.9 °F - 64.9 °F 100% 29.98 in 2.0 mi Calm Calm - N/A   Clear
5:01 AM 66.2 °F - 64.4 °F 94% 29.97 in 0.8 mi Calm Calm - N/A   Clear
5:13 AM 64.4 °F - 64.4 °F 100% 29.98 in 2.0 mi Calm Calm - N/A   Clear
5:22 AM 64.4 °F - 64.4 °F 100% 29.98 in 3.0 mi Calm Calm - N/A   Clear
5:26 AM 64.4 °F - 64.4 °F 100% 29.98 in 1.8 mi Calm Calm - N/A   Clear
5:51 AM 64.4 °F - 64.4 °F 100% 29.99 in 3.0 mi Calm Calm - N/A   Clear
5:53 AM 64.4 °F - 64.4 °F 100% 30.00 in 1.8 mi Calm Calm - N/A   Clear
5:56 AM 64.9 °F - 64.9 °F 100% 30.00 in 0.8 mi Calm Calm - N/A   Clear
6:04 AM 64.4 °F - 64.4 °F 100% 30.00 in 7.0 mi NW 3.5 mph - N/A Fog Shallow Fog
6:56 AM 72.0 °F - 71.1 °F 97% 30.03 in 10.0 mi Calm Calm - N/A   Partly Cloudy
7:56 AM 75.9 °F - 71.1 °F 85% 30.04 in 10.0 mi NNW 5.8 mph - N/A   Partly Cloudy
8:56 AM 79.0 °F - 68.0 °F 69% 30.05 in 10.0 mi NNW 9.2 mph - N/A   Partly Cloudy
9:56 AM 82.0 °F 85.5 °F 69.1 °F 65% 30.04 in 10.0 mi Variable 6.9 mph - N/A   Scattered Clouds
10:56 AM 84.9 °F 87.6 °F 66.9 °F 55% 30.04 in 10.0 mi West 5.8 mph - N/A   Scattered Clouds
11:56 AM 84.9 °F 88.8 °F 69.1 °F 59% 30.03 in 10.0 mi SSE 12.7 mph 16.1 mph N/A   Scattered Clouds
12:56 PM 84.0 °F 89.0 °F 71.1 °F 65% 30.03 in 10.0 mi South 11.5 mph - N/A   Partly Cloudy
1:56 PM 84.9 °F 90.7 °F 72.0 °F 65% 30.02 in 10.0 mi SSW 13.8 mph - N/A   Partly Cloudy
2:56 PM 86.0 °F 90.1 °F 69.1 °F 57% 30.01 in 10.0 mi SSW 16.1 mph - N/A   Partly Cloudy
3:56 PM 86.0 °F 90.1 °F 69.1 °F 57% 30.00 in 10.0 mi SW 13.8 mph 19.6 mph N/A   Partly Cloudy
4:56 PM 84.9 °F 86.6 °F 64.9 °F 51% 29.99 in 10.0 mi WSW 11.5 mph - N/A   Partly Cloudy
5:56 PM 82.9 °F 85.8 °F 68.0 °F 60% 29.98 in 10.0 mi SW 17.3 mph 21.9 mph N/A   Scattered Clouds
6:56 PM 81.0 °F 84.1 °F 69.1 °F 67% 29.98 in 10.0 mi WSW 9.2 mph - N/A   Partly Cloudy
7:56 PM 78.1 °F - 69.1 °F 74% 30.00 in 10.0 mi WSW 5.8 mph - N/A   Scattered Clouds
8:56 PM 77.0 °F - 69.1 °F 76% 30.01 in 10.0 mi West 3.5 mph - N/A   Mostly Cloudy
9:56 PM 77.0 °F - 71.1 °F 82% 30.03 in 10.0 mi West 3.5 mph - N/A   Mostly Cloudy
10:56 PM 75.9 °F - 71.1 °F 85% 30.03 in 10.0 mi WNW 3.5 mph - N/A   Mostly Cloudy
11:56 PM 75.9 °F - 72.0 °F 87% 30.04 in 10.0 mi WNW 3.5 mph - N/A   Clear